User: anonymous   Login
Location: Recife
(8.0585°S, 34.8848°W)
Time: 12:03:43
(UTC-03:00)
Language:

SR - Orbit

View from above orbital plane
View from above orbital plane
View from above satellite
View from above satellite

Ground track
Ground track

The orbit is defined by the following mean orbital elements,

1 00046U          26104.25314502 +.00000000 +00000-0 +16305-3 0 00006
2 00046  66.6893  42.5435 0197858 339.3483  19.9708 14.54793602    09
Epoch (UTC): 14 April 2026 06:04:31
Eccentricity: 0.0197858
inclination: 66.6893°
perigee height: 570 km
apogee height: 850 km
right ascension of ascending node: 42.5435°
argument of perigee: 339.3483°
revolutions per day: 14.54793602
mean anomaly at epoch: 19.9708°

The dashed part of the orbit path shows where the satellite is in the earth's shadow,  

DLR